Wind_Gust
21 22 22 21 21 22 22 22 23 23 23 23 22 22 23 22 22 22 22 23 24 24 24 25 25 26 27 27 28 27 29 32 31 29 23 19 10 9 8 8 11 13 17 20 21 19 18 18 19 18 21 21 25 28 25 28 27 28 38 37 40 36 39 32 37 35 29 34 29 32 28 26 30 24 20 16 23 28 27 28 22 16 19 35 34 35 33 26
22 22 22 22 22 22 21 22 22 23 23 23 23 23 22 23 22 22 22 23 23 24 24 25 25 26 27 27 27 27 31 29 31 28 32 17 13 9 8 10 13 14 16 19 16 16 17 17 18 18 23 27 19 28 22 35 28 35 36 40 42 39 37 29 31 33 36 35 31 23 26 30 29 21 25 25 19 26 28 24 25 22 26 32 33 35 31 29
22 22 22 22 23 22 22 23 23 22 24 23 23 23 23 22 23 23 23 23 23 23 24 25 25 27 27 28 27 24 28 31 27 31 13 15 13 9 9 10 11 15 18 18 19 19 19 19 20 20 24 26 26 28 27 36 32 34 34 42 46 32 32 33 34 35 33 31 33 31 28 25 27 28 30 27 20 22 29 26 26 33 25 31 29 32 34 32
22 22 22 22 22 23 24 23 24 24 24 24 23 23 23 23 23 23 23 22 24 23 24 25 25 25 28 28 25 31 28 27 29 15 16 12 11 9 6 6 10 17 19 19 20 22 19 19 21 22 24 28 26 29 33 31 39 32 42 46 45 35 36 36 37 36 33 34 36 35 28 29 25 27 26 25 24 27 26 25 26 29 29 33 30 31 30 28
22 23 23 23 23 24 24 24 24 25 25 24 24 24 24 24 23 23 23 24 23 23 24 24 24 24 27 28 25 27 26 26 15 14 20 14 12 7 6 6 12 19 18 20 22 21 20 19 19 22 26 30 27 26 34 32 37 31 38 37 40 33 39 38 36 33 32 32 36 32 34 36 25 28 27 26 27 27 29 27 27 24 28 35 30 29 28 25
22 23 23 23 23 24 24 24 25 25 25 25 24 24 24 24 24 23 24 24 25 25 25 25 24 24 24 25 35 25 18 17 17 17 14 14 9 9 6 10 14 20 21 22 22 19 19 19 21 24 28 26 24 35 28 34 30 41 33 36 40 40 43 32 35 35 36 40 34 32 34 31 31 28 26 25 26 25 30 29 31 21 34 33 30 31 26 24
22 23 24 23 24 25 25 25 25 25 25 25 25 25 24 24 23 24 24 25 24 24 25 25 26 26 25 25 33 24 24 38 25 18 15 12 13 12 12 15 17 21 21 22 20 21 16 19 21 22 24 26 27 35 31 29 33 36 42 33 39 38 44 38 35 30 37 39 39 36 30 36 32 38 29 31 24 32 28 23 18 40 36 29 25 20 23 22
23 23 24 23 25 25 25 26 25 25 25 25 25 25 24 24 23 23 24 24 24 23 23 24 23 25 23 26 25 18 18 26 20 19 16 15 16 17 16 17 18 18 18 19 19 19 17 21 23 21 28 28 23 32 24 31 32 39 46 35 36 36 39 36 39 37 36 35 36 35 40 36 36 38 28 32 29 33 32 27 30 35 32 33 29 29 29 24
24 24 24 24 25 25 25 26 26 26 27 26 26 25 26 25 24 23 24 24 23 22 22 22 22 20 20 22 22 22 24 17 19 19 19 16 15 15 13 19 15 16 17 18 19 20 19 18 22 22 24 27 27 27 28 30 38 38 37 37 33 36 35 34 35 39 41 43 33 38 43 41 39 33 36 32 33 30 27 22 30 34 31 27 30 29 29 30
24 24 25 25 25 26 26 26 27 27 28 27 28 27 26 26 25 24 24 24 23 22 22 21 21 18 21 20 20 19 16 21 19 20 18 15 13 13 14 18 17 17 19 18 19 19 20 21 20 16 24 28 24 29 25 31 32 27 34 36 37 36 35 31 35 35 37 41 36 42 38 44 41 43 42 34 37 33 31 21 33 35 29 26 26 26 26 28
25 25 26 26 26 26 27 28 29 29 29 29 29 28 27 27 26 26 26 26 25 24 21 20 18 19 21 17 20 22 14 17 14 11 13 7 13 16 17 16 14 16 16 19 21 19 19 20 18 21 22 31 21 27 28 31 24 32 34 31 36 37 38 32 33 34 33 43 41 42 41 38 39 42 47 34 33 39 32 23 25 29 28 29 25 23 20 24
26 26 26 26 27 27 28 28 29 30 30 31 30 30 29 28 28 27 27 26 26 24 20 18 18 21 20 21 24 32 13 20 25 22 20 18 16 18 18 17 16 17 18 20 19 18 18 18 16 22 24 15 31 19 29 27 30 28 31 39 32 35 51 37 39 36 33 39 34 41 43 45 41 38 38 35 32 26 33 25 16 21 26 28 27 26 23 24
25 26 26 26 27 27 29 29 30 31 31 31 31 31 30 30 29 29 28 28 23 22 21 19 16 18 18 25 33 31 32 31 27 23 20 17 20 19 20 18 18 17 18 19 19 19 18 17 17 22 23 29 23 30 17 26 25 26 29 32 33 36 38 38 39 36 38 40 28 32 50 42 47 44 42 36 27 24 23 29 21 24 28 26 25 26 23 21
26 26 26 27 28 28 29 30 31 31 32 33 33 33 33 32 32 31 29 26 26 23 19 18 19 19 19 27 25 23 23 24 24 25 22 19 20 21 20 18 17 17 16 18 19 20 21 19 18 20 21 25 25 17 25 26 19 34 29 31 33 32 40 29 43 39 41 34 32 33 46 41 42 43 41 33 30 14 22 20 22 23 25 24 25 26 28 26
25 26 27 27 28 28 29 31 31 32 33 35 36 35 33 32 30 29 29 26 23 19 17 11 19 17 20 31 25 33 36 30 26 26 24 23 20 20 20 17 18 17 18 16 18 17 18 18 18 21 26 19 23 24 26 24 23 25 29 35 30 35 32 31 30 33 48 39 35 34 39 40 37 41 39 32 28 18 23 24 26 24 27 23 21 24 25 24
27 27 28 28 28 29 30 30 32 32 33 34 36 36 35 32 30 28 28 24 23 19 19 18 19 23 20 31 18 12 15 21 26 26 23 20 21 21 19 19 16 14 13 15 15 17 18 16 22 19 21 19 23 25 22 25 28 29 33 25 34 33 32 29 33 32 37 42 30 36 38 35 36 33 30 29 27 30 31 27 21 21 23 24 22 24 23 23
27 27 28 28 27 28 30 30 32 33 33 34 36 36 34 32 29 26 24 22 18 15 17 17 19 22 17 16 21 18 19 22 17 15 18 18 18 18 18 17 17 17 19 20 19 16 18 22 16 22 22 25 22 25 27 29 27 32 28 36 31 35 33 37 22 34 35 42 37 39 50 38 24 26 26 20 26 28 34 36 29 22 23 23 22 23 25 26
27 28 28 28 29 30 30 31 32 33 33 34 34 33 43 33 29 22 17 17 13 16 17 22 20 17 40 35 29 19 18 22 16 12 10 10 14 16 16 17 14 17 20 22 21 23 20 26 21 24 20 25 25 28 34 33 33 30 30 30 36 34 33 30 39 26 35 42 45 36 45 42 37 28 30 36 24 29 35 36 33 28 23 24 22 22 24 26
27 28 28 28 28 29 30 30 31 32 30 33 34 33 35 32 27 19 21 14 13 11 13 23 24 20 17 16 16 23 24 13 16 12 13 14 15 16 16 16 18 19 22 21 21 23 23 23 21 23 27 27 31 30 32 29 29 33 30 32 28 31 33 41 35 31 33 38 47 43 44 42 42 38 31 24 32 32 30 32 29 28 26 22 23 26 25 26
28 28 28 28 28 29 30 30 31 31 31 27 31 34 31 15 15 11 13 16 24 23 21 21 26 22 23 23 21 19 20 13 19 17 15 15 18 17 22 22 21 22 24 26 22 28 21 26 27 27 27 28 27 32 31 31 32 32 32 31 33 33 33 33 33 30 34 36 40 43 43 39 37 38 36 34 27 30 33 30 26 24 27 23 22 25 25 23
28 27 27 27 28 29 29 31 29 28 28 28 25 25 24 25 23 27 29 28 27 28 30 30 29 27 30 26 25 24 23 20 22 20 21 16 22 21 26 23 23 26 27 25 28 20 28 28 27 26 26 27 28 28 31 34 32 33 32 32 36 35 35 34 34 31 37 38 36 41 41 42 37 35 39 37 36 33 29 31 28 28 27 24 25 24 26 24
27 28 27 28 28 28 29 29 30 28 27 23 17 18 19 19 20 23 29 36 24 24 25 27 26 32 30 28 24 22 19 29 23 22 21 13 19 22 17 23 23 28 23 26 26 31 32 32 27 28 28 27 29 30 30 33 34 33 35 33 34 36 32 29 37 34 34 40 36 37 43 39 38 35 35 38 36 34 30 28 34 32 29 28 29 25 22 21
28 27 27 28 28 28 28 30 29 30 24 15 15 16 19 18 19 19 20 30 37 30 26 24 26 27 29 25 23 15 22 26 29 21 29 23 21 25 19 23 24 26 29 26 29 27 32 30 28 29 29 30 30 31 31 32 33 34 34 34 36 32 34 34 39 37 36 43 34 33 37 37 33 35 34 33 37 35 34 33 34 30 33 30 29 27 25 26
27 27 27 28 30 30 29 26 29 24 14 13 15 16 16 17 18 17 19 20 28 29 23 24 25 26 26 20 16 22 20 21 20 20 19 22 24 15 25 25 25 27 29 27 29 31 31 25 26 30 30 30 32 30 31 33 32 33 33 33 35 32 36 37 28 37 34 37 37 33 34 33 33 34 40 33 32 33 32 30 32 32 29 32 27 25 26 31
28 28 29 31 29 31 26 28 18 13 15 14 11 12 13 14 14 16 20 24 28 28 18 16 16 12 17 12 9 15 16 21 18 18 15 17 21 21 22 24 27 27 25 25 28 33 31 31 26 29 32 30 32 33 34 31 32 32 33 34 30 32 38 39 40 34 40 42 44 36 41 39 28 37 41 35 35 34 29 29 32 31 29 24 29 28 23 30
28 28 31 30 29 27 30 21 11 20 19 11 14 14 15 14 14 15 17 15 18 18 16 17 14 13 18 14 12 16 14 25 13 18 18 16 16 22 20 27 26 26 23 26 31 35 30 27 30 31 29 31 33 33 28 29 32 31 35 32 36 37 38 38 38 38 36 44 37 40 38 30 28 34 34 31 32 35 31 33 35 35 28 26 23 22 26 31
29 31 31 29 27 24 21 14 21 19 12 13 16 14 14 14 10 12 16 13 14 17 10 23 14 19 14 17 21 12 19 12 21 15 17 17 20 18 23 22 23 24 25 22 29 35 26 28 32 31 31 32 32 35 32 30 33 38 23 29 34 38 40 39 36 37 36 29 35 40 44 31 29 33 31 34 32 33 33 36 34 32 29 27 24 24 28 36
31 32 31 28 27 18 17 22 17 14 13 14 15 15 15 14 13 13 14 18 20 11 12 16 15 14 14 20 21 22 19 16 21 14 17 14 20 19 24 22 25 21 20 21 29 17 22 29 29 31 31 35 33 29 26 29 39 31 26 30 32 37 40 39 37 35 36 30 39 40 39 43 34 25 34 36 37 35 34 35 36 33 32 30 27 30 31 36
31 31 29 27 25 26 20 17 13 16 14 14 14 13 12 13 14 12 12 16 19 22 17 17 16 13 16 18 21 18 22 19 22 12 18 20 18 20 24 21 25 25 23 21 28 25 25 24 24 29 34 36 29 27 28 28 34 28 32 30 31 32 39 38 38 36 31 35 31 34 40 41 33 31 33 37 37 39 40 38 39 36 34 33 29 31 35 32
31 30 27 24 22 18 17 16 17 19 19 12 12 12 13 12 14 11 12 12 16 21 17 11 14 15 19 23 26 25 22 22 21 19 20 18 18 21 28 22 21 21 26 24 29 27 28 20 20 29 34 31 29 31 27 27 30 24 32 35 34 35 38 35 35 35 34 35 29 33 34 35 37 34 30 37 45 40 37 36 35 33 30 31 28 35 37 35
31 29 25 18 16 17 16 14 13 15 14 13 11 12 14 10 9 18 15 16 21 15 16 12 17 21 21 18 24 17 22 29 21 24 18 18 24 23 18 24 22 23 19 20 26 26 26 27 28 24 24 30 28 35 29 27 29 31 38 36 31 31 31 32 32 28 32 28 28 34 36 36 39 28 36 29 32 35 31 32 34 35 36 32 27 38 37 33
30 27 22 20 19 18 13 14 17 13 13 12 11 14 11 14 17 11 18 14 24 15 17 20 21 19 25 23 24 27 27 23 16 21 24 21 22 24 23 24 20 26 24 24 28 23 29 30 24 23 20 26 30 28 29 31 31 35 35 34 33 28 31 34 34 33 27 29 28 33 34 40 43 27 28 30 33 36 33 36 35 34 34 29 30 37 37 35
29 23 25 21 14 14 18 16 13 12 10 10 13 12 12 11 12 15 19 21 14 9 17 19 21 23 24 27 26 18 12 15 12 21 24 24 23 23 22 28 22 27 24 19 25 25 29 25 28 27 23 26 28 32 31 34 34 34 40 36 36 35 32 25 27 25 23 32 35 36 35 43 29 40 32 27 26 35 34 31 30 32 31 30 34 37 36 35
28 25 22 14 15 17 13 10 10 10 10 9 12 13 13 13 18 12 17 17 12 16 21 22 25 24 20 21 19 17 21 12 16 19 19 20 24 25 24 24 24 25 28 22 22 21 24 29 33 29 34 23 33 34 29 25 28 36 30 37 30 29 32 26 32 32 26 29 34 35 41 40 34 25 33 37 28 30 34 35 28 29 29 31 35 37 36 32
32 24 17 17 15 16 11 10 8 8 10 10 12 10 9 13 19 20 19 19 25 20 21 24 27 21 19 17 14 13 15 16 14 17 18 18 22 26 25 22 24 27 25 27 24 23 26 34 21 30 25 29 32 30 32 28 28 30 36 33 35 34 21 31 23 29 31 31 34 40 36 22 31 14 34 31 34 27 35 33 28 32 30 31 37 39 36 33
22 18 17 14 11 9 11 8 6 7 10 10 12 12 15 17 18 19 21 21 23 23 26 26 15 18 20 13 11 13 14 14 9 12 17 21 22 26 23 25 28 29 30 32 15 20 24 34 23 24 30 31 31 31 34 29 34 32 38 43 34 26 27 20 21 29 20 18 26 19 30 34 22 28 27 35 39 30 33 32 32 33 33 35 39 38 34 34
22 18 15 13 15 7 7 7 9 9 8 10 10 14 17 20 16 22 20 23 22 19 13 26 22 19 19 19 21 14 14 14 19 18 17 15 23 27 28 27 24 24 30 27 26 25 21 21 19 27 30 36 32 29 31 30 31 26 39 33 32 33 28 31 29 23 24 25 27 27 31 28 35 34 20 32 35 31 30 32 31 30 35 36 40 38 37 35
22 21 19 9 12 10 7 10 8 10 8 8 12 14 19 23 17 19 19 24 19 16 14 14 16 14 15 23 18 18 16 19 17 21 19 16 16 12 18 28 24 30 23 26 27 16 18 29 26 28 28 31 31 30 30 32 31 33 28 27 46 36 34 30 28 26 28 26 25 27 29 33 34 26 22 27 34 28 25 28 28 31 35 33 37 35 35 33
19 18 15 11 13 8 11 5 9 9 9 11 12 21 14 25 22 20 21 25 13 13 15 12 16 6 15 19 18 20 20 22 18 20 24 12 14 16 21 18 20 23 26 26 29 22 21 23 20 22 30 28 31 30 31 30 32 36 34 35 35 29 28 28 33 17 31 21 22 28 33 33 30 29 23 26 32 27 26 28 27 32 35 31 37 34 35 34
15 14 12 11 11 10 11 9 7 8 7 11 14 21 23 29 27 22 19 16 14 10 13 14 12 20 18 12 20 26 21 21 17 21 20 15 19 16 24 16 20 18 23 28 25 23 22 21 20 15 22 28 38 37 31 29 30 34 37 35 39 39 23 27 30 33 27 27 25 20 25 30 26 27 28 28 24 28 24 26 25 30 31 30 35 34 33 33
15 24 13 10 13 10 10 10 10 11 12 18 19 22 23 27 24 21 17 12 11 17 21 21 19 19 20 26 20 19 25 20 21 17 16 16 16 24 18 23 18 16 18 23 23 22 16 17 16 17 23 32 30 29 28 30 30 31 33 32 36 37 34 28 28 31 34 33 27 23 23 26 23 28 22 27 20 25 30 25 28 27 29 29 32 32 34 34
16 17 11 14 15 13 13 12 14 12 12 14 18 25 27 20 23 19 19 11 15 20 13 23 21 22 22 22 22 23 27 26 23 25 12 20 16 23 16 24 16 20 19 21 21 19 17 10 10 19 23 28 28 29 29 27 30 33 33 35 38 34 34 28 24 20 25 33 24 25 18 23 24 14 21 25 16 26 24 27 29 25 28 28 31 33 34 35
20 16 14 15 14 15 14 20 17 15 15 16 18 22 23 23 19 23 24 17 22 15 17 19 19 21 20 22 22 26 23 32 23 18 20 19 22 19 17 22 14 19 16 9 16 16 11 14 15 24 25 29 28 25 28 27 28 32 38 37 37 37 31 31 30 21 25 21 27 24 23 26 18 8 16 22 12 19 17 23 26 26 26 30 30 34 34 32
20 20 14 15 14 13 16 16 20 17 20 19 20 25 19 23 21 24 22 18 17 15 17 21 18 17 24 23 26 30 25 23 10 17 21 20 26 18 21 18 13 18 16 10 11 11 15 17 18 12 19 31 29 26 31 29 33 32 33 35 35 37 32 31 29 24 27 28 26 21 22 23 19 9 16 17 20 19 19 18 23 27 27 29 32 34 34 34
27 25 21 20 16 14 12 15 15 17 18 21 25 25 27 23 18 19 18 19 14 13 16 17 18 26 30 23 28 27 22 20 25 8 16 19 27 21 22 19 17 16 20 18 18 19 15 9 14 17 21 27 29 32 36 31 34 33 31 34 36 37 37 30 28 24 25 15 27 23 27 25 25 17 24 21 23 21 18 16 14 24 27 30 31 33 35 35
18 18 13 16 19 18 23 19 18 14 19 19 18 21 22 27 28 11 11 22 10 15 17 22 21 21 22 20 24 23 24 20 20 18 22 25 23 18 18 22 20 16 24 21 23 17 10 11 16 18 22 21 27 30 28 28 29 35 29 33 34 33 35 32 26 28 25 18 20 22 22 31 38 24 24 19 22 22 23 19 18 25 27 30 30 34 34 34
22 17 19 20 19 20 20 17 17 11 14 15 23 17 21 27 30 25 13 16 11 22 22 15 18 22 20 20 23 26 21 21 16 22 21 19 18 26 26 27 21 16 24 24 21 15 10 14 17 19 24 29 24 24 25 31 33 34 31 31 34 34 29 25 22 30 19 20 23 20 17 21 26 19 16 12 11 12 14 23 22 23 27 31 32 31 27 32
18 17 20 14 15 23 23 17 19 18 23 14 23 21 24 28 26 29 16 15 21 10 12 15 13 15 21 22 24 26 22 24 23 20 18 17 23 21 30 18 18 22 20 23 19 12 10 9 14 17 21 25 27 28 27 33 33 30 28 28 29 30 31 34 26 21 17 16 22 15 22 24 28 19 14 16 14 11 15 20 22 26 28 29 31 33 33 32
17 21 15 22 19 18 22 25 27 26 29 26 24 17 23 23 27 28 28 30 26 19 10 18 14 16 20 21 19 22 23 20 14 15 18 16 17 25 17 21 17 22 21 20 15 10 11 13 16 16 20 26 27 28 29 29 32 31 29 32 31 29 26 25 28 25 20 9 10 20 20 24 25 19 17 12 13 9 14 16 23 26 28 30 34 35 33 33
22 21 18 24 20 27 23 21 25 25 25 19 13 17 30 26 27 29 28 27 32 23 15 13 21 18 20 21 22 26 24 22 22 24 18 20 16 16 13 10 16 21 16 13 11 8 11 12 14 16 15 20 27 28 28 30 27 30 29 32 30 26 29 27 25 19 9 12 18 24 21 23 19 13 15 12 13 13 16 18 18 22 25 27 30 30 32 33
17 16 16 23 29 20 22 22 25 25 24 15 18 21 24 27 27 30 30 26 23 26 24 24 23 22 20 19 21 25 26 20 19 18 16 14 12 10 14 13 17 17 14 10 8 8 7 10 20 12 8 14 21 23 24 24 28 27 25 28 31 27 21 19 26 17 8 14 11 11 19 22 30 20 13 12 15 16 11 13 15 21 23 25 24 28 29 30
18 13 13 15 24 17 27 24 25 23 17 20 24 25 32 27 28 30 37 17 20 24 28 23 13 12 17 11 20 27 25 20 17 16 18 17 17 18 21 21 18 18 13 8 11 12 10 10 12 11 13 16 20 26 28 25 23 26 25 27 26 22 24 19 23 20 21 16 9 9 15 18 26 21 13 12 13 14 13 17 18 24 32 30 27 26 27 29
Wind_Speed
17 17 17 17 17 16 16 16 18 18 18 18 17 17 18 18 18 17 18 18 19 19 19 20 20 21 21 21 22 22 22 12 16 12 11 11 6 7 4 2 2 4 6 4 6 7 9 8 9 8 7 4 3 7 5 8 4 3 6 9 13 11 15 9 13 10 5 7 8 13 13 13 12 8 4 7 7 15 12 4 2 9 7 18 18 23 22 17
17 17 17 17 17 17 17 17 17 17 17 18 18 18 18 18 18 18 17 18 19 19 20 19 21 21 21 21 21 21 16 14 14 13 17 6 10 7 5 0 1 3 5 2 6 8 10 10 5 8 7 5 4 5 6 3 7 7 4 9 15 12 10 9 9 12 10 14 15 13 12 12 11 7 1 10 3 2 2 1 4 14 16 18 19 23 22 20
16 17 17 17 18 18 18 18 18 18 18 18 17 18 18 18 18 19 18 18 19 18 19 20 20 21 22 21 19 19 15 14 12 12 5 11 10 7 4 1 2 5 2 3 4 8 9 12 13 10 5 7 6 6 9 6 8 9 7 12 15 11 11 11 14 13 13 12 14 16 15 14 15 12 5 12 12 7 3 0 3 10 17 18 16 18 23 21
17 17 18 17 18 18 18 19 18 18 19 18 18 18 18 18 18 18 18 18 19 19 19 20 20 19 23 22 18 16 11 10 6 0 1 5 9 6 3 1 2 3 3 5 7 9 10 12 12 10 7 8 6 9 8 8 9 6 12 12 13 11 11 16 15 12 13 12 12 18 15 17 11 8 4 4 4 7 5 6 5 6 18 23 20 18 19 19
17 18 17 18 18 18 18 19 19 19 19 19 18 19 18 18 18 18 18 19 19 18 19 19 19 19 22 23 19 10 10 3 1 2 4 8 6 5 3 2 2 2 3 6 9 10 10 11 10 8 6 4 7 7 11 10 10 4 14 16 14 8 16 13 13 17 16 14 13 13 18 16 11 11 7 11 9 4 3 4 7 4 19 19 17 14 16 17
17 17 18 18 18 19 19 19 19 19 20 20 19 19 19 19 18 19 19 19 20 20 20 20 19 19 20 21 16 8 2 1 3 3 7 8 6 6 4 4 6 3 4 6 6 9 10 9 9 6 4 4 6 9 8 12 8 11 8 15 17 16 13 8 14 15 19 15 17 13 18 15 12 12 6 7 11 12 19 16 17 10 24 21 17 17 16 16
18 17 17 18 18 19 20 20 20 20 19 19 20 20 19 19 18 19 19 20 19 19 20 20 20 21 20 18 13 8 5 8 9 2 11 9 9 9 7 7 6 4 5 7 8 6 6 10 8 7 6 8 9 10 10 10 13 12 11 12 16 16 21 14 12 14 17 16 19 15 14 18 13 16 10 9 7 4 15 16 8 19 19 19 16 13 12 11
18 18 18 18 19 19 19 20 20 20 20 19 20 20 19 19 18 18 18 19 19 19 18 19 19 20 19 12 11 2 6 9 5 6 12 12 10 9 8 5 5 4 7 7 7 8 8 10 9 6 8 8 4 10 9 11 12 15 16 15 15 15 15 16 17 18 10 16 19 18 16 20 15 12 11 12 10 4 9 13 19 20 19 19 20 19 19 17
19 18 19 19 20 20 20 20 20 20 21 21 20 20 20 20 19 18 19 18 18 17 17 18 18 16 16 8 6 8 7 5 10 11 10 9 8 8 5 3 6 6 5 6 5 7 7 7 10 7 5 8 11 14 9 9 10 12 15 15 13 13 15 14 15 18 20 13 10 15 22 20 20 16 16 12 14 7 3 13 19 19 18 17 18 18 18 20
19 19 19 20 20 20 21 21 21 21 22 22 22 21 21 20 20 19 19 19 18 17 17 16 16 14 12 8 7 4 9 11 8 11 12 10 9 5 5 7 6 7 7 6 6 7 8 8 11 9 9 11 9 10 9 11 8 7 13 14 14 16 13 11 16 16 14 16 17 15 13 21 23 17 10 12 14 12 2 13 21 15 17 16 15 15 15 18
20 20 21 21 20 21 21 22 23 23 23 23 22 22 22 21 21 20 20 20 20 19 17 15 13 12 8 6 5 8 5 6 5 0 7 5 5 4 5 4 4 5 5 7 7 7 10 11 10 7 8 5 6 9 9 7 8 13 14 13 15 15 15 14 13 15 14 15 21 18 18 15 12 15 19 17 15 13 7 13 15 19 17 18 17 15 12 15
20 20 21 21 21 21 22 23 23 23 23 24 23 24 23 23 22 22 21 21 21 19 16 14 14 7 7 7 8 11 7 11 10 10 10 8 6 4 5 5 6 7 6 8 8 8 8 10 9 7 6 9 4 8 7 7 11 12 11 13 15 14 14 14 16 15 15 13 16 15 17 19 15 13 16 23 16 14 9 15 11 13 14 14 17 15 14 15
20 20 21 21 21 22 23 23 24 24 25 25 24 24 24 24 23 23 23 22 18 17 17 14 8 5 6 8 12 16 18 17 17 13 9 7 8 4 4 7 8 7 8 8 8 8 9 7 10 12 8 8 7 6 8 17 12 11 12 10 11 12 15 12 12 16 16 11 10 14 16 17 21 20 20 12 15 16 13 11 12 13 13 11 12 13 12 9
20 20 21 21 22 22 22 23 24 25 26 27 27 26 27 26 25 24 22 21 20 17 15 13 7 5 4 9 7 8 11 9 11 13 10 7 9 8 7 8 10 9 7 7 7 6 9 6 9 10 6 6 6 10 11 8 9 7 8 7 7 7 9 7 9 17 19 9 14 10 14 14 19 25 23 16 7 8 15 8 13 15 14 14 14 14 17 16
20 21 21 21 22 23 24 24 25 25 26 28 29 28 26 26 24 23 22 19 17 14 12 8 4 4 3 8 9 18 25 14 11 14 10 8 8 9 9 9 10 10 7 7 6 5 6 8 7 6 5 4 7 9 8 5 2 5 4 9 7 10 7 10 11 11 20 12 14 14 11 12 15 22 25 20 7 8 7 8 17 14 17 14 13 14 15 15
21 21 22 22 22 23 23 24 25 26 25 27 28 29 27 25 23 21 21 17 17 15 7 3 4 5 4 10 6 4 4 8 11 16 10 9 8 9 9 11 9 8 8 6 4 4 4 4 6 3 7 6 8 6 6 6 5 5 6 4 9 9 9 8 12 10 15 17 13 15 12 12 14 14 18 20 18 17 9 8 11 14 15 15 14 14 13 14
21 21 22 23 22 23 24 23 25 26 26 28 29 28 27 25 21 18 15 16 7 4 4 2 4 6 2 3 9 8 6 8 10 7 10 10 7 7 9 9 7 3 2 6 8 4 5 7 1 5 3 5 3 5 5 5 6 6 4 7 6 10 8 10 5 12 9 15 13 16 15 18 9 8 6 8 14 19 18 10 15 14 13 14 13 14 15 15
22 22 22 22 23 24 24 24 24 26 26 27 27 26 25 27 23 16 10 6 3 4 5 6 5 2 10 8 6 6 6 6 6 5 4 3 5 4 5 5 4 5 5 7 6 10 5 5 3 3 3 6 6 5 8 10 9 7 6 6 8 9 10 6 9 6 13 11 16 16 21 22 17 5 9 15 13 18 22 16 13 16 13 13 12 13 16 16
21 22 22 22 21 23 24 24 25 26 24 26 28 27 25 14 3 2 4 3 3 1 1 3 4 5 1 2 8 9 6 5 3 4 4 2 4 5 3 3 5 5 4 3 4 10 5 3 4 3 7 7 10 11 10 13 12 12 10 8 7 7 7 11 8 11 9 9 14 17 17 24 21 14 8 6 9 15 17 14 10 13 16 14 13 12 12 14
20 22 21 21 22 22 24 24 25 25 25 16 14 12 7 3 2 1 3 4 7 8 10 9 9 8 12 13 11 11 13 9 4 6 5 7 1 2 6 2 4 5 6 6 6 8 3 7 7 7 9 10 10 13 13 11 12 11 11 12 12 11 10 8 12 10 13 11 12 18 21 16 12 16 13 13 5 6 9 7 7 9 12 13 13 12 13 13
22 21 22 21 22 22 23 24 23 23 22 12 10 8 5 10 9 7 10 12 12 14 15 16 16 15 15 10 10 10 9 7 7 3 10 4 4 2 4 3 3 6 6 8 8 3 7 7 8 10 11 13 12 11 14 14 12 13 11 11 11 12 10 9 10 13 14 11 7 16 20 20 18 12 17 16 13 9 9 10 9 10 11 11 12 13 14 14
21 21 21 22 21 22 23 23 24 22 21 8 6 5 7 9 5 6 8 8 13 10 13 14 11 13 15 16 15 11 9 10 8 8 7 3 6 6 2 7 7 8 6 7 6 8 5 9 10 13 12 11 12 13 11 15 16 13 10 9 10 9 9 11 12 12 13 12 15 9 14 18 20 14 15 20 16 13 10 13 13 13 14 10 13 13 14 11
21 21 21 21 22 22 23 23 23 23 8 4 3 7 6 7 6 6 5 8 12 9 10 11 12 15 15 12 11 7 9 8 8 6 6 6 6 6 3 5 5 6 7 7 7 7 9 7 12 12 11 12 12 13 14 12 13 11 10 8 8 6 9 7 12 10 15 13 9 15 16 10 17 15 14 15 20 18 18 12 13 14 14 15 16 15 14 16
22 21 22 22 24 24 23 20 22 13 3 7 7 6 5 4 5 7 6 4 8 13 6 9 10 10 10 9 3 7 6 5 5 8 6 6 8 6 7 8 9 7 8 10 12 10 10 10 9 12 13 13 14 12 13 10 8 9 12 10 9 11 10 11 9 11 10 18 17 10 12 10 12 17 15 14 15 19 19 17 14 9 13 16 14 16 16 20
22 22 23 25 23 25 21 20 7 5 8 9 2 5 6 6 4 7 5 3 3 7 5 6 7 2 1 1 3 4 3 5 7 7 2 5 8 5 5 3 4 8 9 11 13 12 13 14 13 13 12 14 13 12 12 10 9 8 9 12 12 11 13 13 15 17 10 8 11 15 9 12 8 18 19 15 14 13 16 18 16 18 10 12 17 18 15 19
22 23 25 23 22 21 23 8 2 9 10 2 4 5 6 4 4 3 4 3 5 2 1 2 2 2 3 2 6 3 5 6 4 4 4 4 4 5 1 5 3 7 9 12 11 6 8 12 15 16 12 11 14 12 10 10 9 6 7 8 13 15 13 13 17 14 9 9 8 13 16 7 5 15 16 16 19 16 12 18 19 22 14 12 14 13 14 18
23 25 24 23 19 17 7 3 5 10 4 2 7 6 6 4 4 2 1 1 1 2 2 1 2 4 3 9 12 2 4 3 7 5 3 1 4 4 5 3 3 6 8 4 2 6 8 11 8 13 16 13 10 12 11 12 8 7 4 11 10 14 16 16 18 15 8 8 15 17 13 10 5 9 17 19 20 21 14 16 19 17 19 16 15 13 16 18
25 25 24 20 19 11 4 6 7 6 4 3 4 4 4 4 6 2 1 1 4 2 3 2 2 1 4 7 9 10 9 9 5 2 2 1 2 4 6 5 6 8 2 6 9 5 8 10 11 12 12 12 11 7 10 13 10 5 7 11 14 10 13 16 17 14 10 9 14 12 14 13 8 5 16 21 20 21 17 16 19 17 16 18 14 14 19 20
25 23 22 19 18 18 6 4 2 5 5 6 2 4 2 3 2 4 2 1 1 2 6 4 6 2 6 7 7 6 10 8 6 5 10 13 4 4 4 9 8 9 11 11 8 6 8 11 12 12 9 8 8 11 7 6 10 11 15 10 11 12 10 13 14 14 11 8 12 15 12 9 10 7 7 16 18 19 16 20 23 20 13 15 14 15 19 19
25 22 20 16 12 4 2 2 7 9 7 7 4 4 5 3 1 1 1 1 0 2 4 2 1 4 5 4 4 5 7 6 5 1 3 1 10 7 8 5 5 4 7 6 10 9 9 9 11 7 7 7 8 8 9 11 10 5 10 11 12 11 8 8 9 9 6 10 14 17 19 11 7 8 11 10 14 17 15 18 19 15 14 12 15 18 19 19
25 22 17 12 3 4 4 4 6 7 2 5 5 5 4 1 2 1 2 1 2 1 3 2 4 3 5 7 8 3 8 10 8 4 3 3 7 6 3 5 2 3 3 5 9 9 9 10 10 5 9 9 10 12 10 11 8 7 5 5 6 9 8 8 8 6 9 9 13 14 15 7 9 4 11 10 10 16 13 16 18 17 19 15 14 16 18 19
24 21 17 8 6 4 2 3 7 4 4 6 5 4 1 2 1 2 2 4 3 4 2 4 2 3 7 4 5 3 4 7 6 4 5 3 5 5 2 4 2 2 3 2 6 3 8 8 7 10 7 9 6 9 9 8 8 8 6 4 5 3 2 6 4 7 5 9 9 10 9 10 12 10 13 17 13 11 12 15 18 16 18 17 16 19 18 17
23 19 19 9 7 3 5 9 4 3 4 5 4 4 2 2 2 3 2 5 1 1 2 3 5 9 10 9 6 8 3 6 3 6 4 4 6 5 7 7 6 4 2 1 5 4 6 7 10 11 9 6 9 6 4 6 4 6 6 4 4 4 3 5 5 5 5 8 15 11 7 9 10 13 14 14 13 11 16 17 12 16 19 18 18 19 18 18
23 19 8 5 5 6 6 4 1 5 5 4 3 3 2 1 3 5 6 2 3 4 7 4 11 13 8 4 4 2 3 2 3 1 8 3 6 4 6 10 10 7 4 4 3 1 3 4 8 8 5 6 7 9 6 5 3 6 4 7 4 4 3 4 3 4 3 6 8 9 7 2 4 6 14 13 11 13 15 17 12 17 19 20 19 19 19 19
25 16 6 5 5 7 7 3 3 1 3 4 2 1 3 1 3 3 4 3 3 5 6 7 8 3 7 1 1 1 3 2 1 3 4 5 4 5 5 6 10 9 3 2 2 2 11 7 6 6 8 4 10 9 7 8 10 9 8 7 7 8 1 5 1 1 4 6 10 7 4 3 10 6 10 13 15 10 10 15 13 18 17 20 18 20 19 19
14 5 2 3 3 5 6 4 3 1 3 3 2 1 1 3 3 3 3 5 4 5 11 9 5 2 3 4 2 4 6 3 3 5 4 7 7 6 8 6 8 12 7 7 3 1 2 7 3 9 7 8 8 7 9 6 4 3 6 8 9 4 6 3 4 8 5 4 8 4 5 10 9 15 11 14 16 16 13 16 18 19 20 23 20 19 20 19
7 7 2 4 7 2 4 3 4 1 2 1 2 2 2 4 3 6 2 6 5 5 5 8 2 1 2 3 3 9 1 6 1 3 2 5 6 9 8 9 9 9 13 7 4 3 3 5 3 5 10 10 11 9 11 10 9 7 6 4 2 5 8 5 3 2 4 5 6 5 7 9 8 5 10 9 13 14 14 18 19 20 22 23 22 20 21 21
7 6 7 4 5 4 3 5 1 1 0 1 1 6 2 4 3 7 0 6 3 2 2 1 3 2 1 3 5 5 9 8 2 3 2 2 3 1 9 6 10 12 10 13 5 1 1 7 7 11 13 11 8 9 11 14 13 10 11 4 3 3 8 8 4 5 3 4 5 6 11 11 9 11 4 7 13 17 11 17 16 19 22 21 23 22 22 21
3 2 4 5 4 4 5 3 0 1 2 1 2 4 2 6 10 9 1 3 2 1 0 3 2 1 2 4 3 8 8 5 6 3 3 1 1 3 6 6 7 11 16 12 8 3 2 2 4 5 9 5 7 5 9 8 9 15 13 13 5 4 5 4 2 3 2 4 2 10 8 8 8 11 8 8 14 17 8 14 16 20 22 19 22 20 21 20
1 2 2 4 5 7 5 2 1 1 1 0 2 3 4 8 8 9 1 1 1 1 2 3 3 5 5 7 6 8 7 10 7 1 1 4 6 7 8 6 7 5 10 10 7 8 0 3 4 2 1 8 4 5 9 8 7 8 9 9 6 3 1 4 5 9 6 4 3 3 7 6 8 4 7 13 14 17 10 12 13 18 19 20 23 21 20 20
4 2 1 1 6 4 3 2 0 2 2 4 4 6 8 5 4 5 5 8 2 7 7 5 2 2 6 9 8 7 7 8 9 0 3 2 3 2 4 4 3 8 8 9 8 4 3 4 5 5 5 5 6 7 10 12 10 7 8 9 8 6 5 6 9 8 10 5 4 5 8 9 8 6 9 13 8 11 13 15 16 17 19 18 19 21 21 20
2 3 1 3 5 5 4 0 3 3 1 3 3 2 5 7 4 6 6 3 7 3 5 5 8 8 8 8 7 8 3 4 4 6 3 5 4 7 5 9 6 9 5 4 6 4 3 1 1 6 6 6 8 9 10 13 12 10 8 10 9 2 1 5 7 6 5 8 10 9 6 10 11 9 5 10 5 7 9 19 18 16 16 17 19 21 21 23
2 3 1 4 5 5 1 2 3 2 2 4 4 6 6 6 5 4 4 5 5 1 1 2 5 9 6 3 4 9 4 4 3 4 3 7 11 9 5 9 9 4 2 1 8 4 2 2 2 6 7 10 14 14 12 14 13 11 11 9 7 8 10 8 9 9 7 6 7 5 5 9 9 3 7 10 5 7 8 15 18 16 15 17 20 22 21 20
3 5 2 2 3 3 1 1 4 5 4 6 6 8 8 7 6 6 2 8 3 1 1 2 7 3 9 11 8 9 5 3 3 7 4 4 5 7 12 13 7 7 8 4 3 4 2 2 3 2 3 3 2 2 5 11 11 8 7 7 9 10 12 11 9 10 11 7 10 5 8 9 9 2 4 6 9 10 7 7 16 17 16 17 20 21 20 21
6 4 4 2 4 3 1 2 3 6 7 8 8 11 10 4 3 7 4 5 4 4 2 4 7 6 10 11 9 7 3 4 2 2 5 8 6 11 8 6 8 8 8 8 9 6 1 1 5 3 3 4 3 5 6 10 13 8 6 9 12 14 13 7 7 8 11 4 9 7 9 12 14 8 4 4 9 9 10 7 9 15 16 17 19 20 21 21
1 3 0 3 2 3 5 5 6 5 7 6 7 8 6 6 5 6 6 7 6 5 6 2 1 2 6 9 9 8 10 6 6 3 3 4 6 6 8 14 12 6 17 16 16 9 0 2 3 4 4 4 3 3 4 5 5 9 10 10 12 13 13 11 8 10 10 0 4 6 8 15 24 15 5 5 4 3 12 8 12 13 15 18 19 21 20 20
3 1 4 4 4 5 6 3 2 2 4 2 4 3 6 8 8 6 6 1 2 3 1 5 2 4 3 4 9 11 8 9 4 8 5 5 5 8 13 12 10 8 17 14 13 5 3 2 6 9 12 12 12 14 10 10 11 11 9 9 10 12 12 11 10 11 5 2 10 8 11 9 16 13 10 2 2 4 3 5 12 13 16 17 19 19 21 20
2 2 5 2 2 5 7 7 7 10 12 6 7 5 11 12 7 6 2 2 11 2 1 1 1 4 8 7 9 5 8 9 9 3 2 3 6 9 9 7 8 13 14 10 12 5 5 3 4 7 11 13 11 13 11 7 10 7 9 7 10 13 15 16 13 12 6 6 10 7 7 10 15 13 8 1 6 5 2 12 13 17 17 18 19 21 21 21
3 3 1 7 4 6 6 11 14 11 14 12 5 6 8 7 11 7 6 10 7 5 3 7 6 6 7 8 2 5 9 6 2 3 2 4 3 5 5 5 10 13 8 5 3 3 2 3 6 6 10 8 7 7 9 8 5 11 13 14 18 18 15 10 11 14 13 4 1 5 10 12 14 13 10 3 7 6 5 3 14 16 18 20 22 23 21 21
5 6 5 6 4 9 9 7 7 9 9 11 3 4 7 9 13 13 9 7 9 9 2 5 4 11 2 7 6 5 8 8 9 5 0 2 4 2 2 1 1 4 8 3 2 1 1 2 1 3 2 6 6 5 6 8 7 9 15 21 20 15 12 13 13 10 2 6 2 4 7 13 10 7 9 6 8 8 9 10 7 15 17 18 20 20 21 21
3 3 3 7 11 5 7 7 7 8 8 4 7 7 9 11 12 13 12 10 9 10 11 14 3 12 3 8 9 10 12 11 11 10 6 4 4 3 3 2 1 4 3 4 3 0 1 3 2 1 3 5 3 3 6 6 10 11 13 19 18 12 11 10 8 3 1 3 5 1 4 9 16 12 11 3 8 9 6 7 6 10 15 16 17 18 19 20
3 4 5 4 5 6 8 8 8 8 4 6 7 10 7 13 11 13 12 5 7 11 12 10 2 2 7 6 9 9 10 9 12 11 6 5 6 5 6 4 4 4 2 3 1 1 2 1 2 2 3 3 3 5 3 6 6 8 11 12 11 8 4 5 11 12 12 6 4 2 8 9 16 13 8 5 7 9 8 11 9 7 6 17 15 15 17 18
Wind_Direction
358 356 353 352 350 349 350 347 345 346 346 346 344 340 338 337 335 335 335 334 332 332 332 331 331 328 330 331 332 330 329 322 314 310 299 255 162 182 184 221 348 352 348 325 317 296 285 258 238 228 239 226 209 233 233 249 236 235 216 217 229 220 223 207 220 224 254 258 244 253 255 255 254 261 246 227 209 185 169 174 65 61 71 136 133 132 137 144
354 353 351 351 351 349 348 347 346 345 344 343 341 338 335 334 333 333 332 332 331 330 331 331 330 328 327 329 330 330 329 313 298 287 252 198 147 150 151 261 0 20 340 12 320 313 315 302 258 201 207 225 189 228 179 225 203 208 212 218 228 216 222 213 227 227 234 244 260 263 267 274 257 254 240 241 89 128 39 11 98 88 105 106 128 135 139 146
351 352 350 349 348 346 345 344 343 341 339 338 336 335 333 331 332 331 331 329 329 330 329 330 330 328 326 325 330 332 325 304 298 265 299 118 136 147 175 94 9 355 8 315 291 286 288 293 296 300 226 223 203 228 191 214 206 217 217 222 230 214 222 219 221 229 232 250 260 261 262 258 272 268 136 228 174 135 216 174 288 128 131 131 137 148 146 149
351 350 349 346 345 345 342 342 340 342 339 336 337 334 331 329 329 330 329 328 327 327 327 326 328 328 324 323 335 330 313 301 266 346 208 202 149 154 143 110 8 326 321 277 285 292 296 286 286 276 274 234 212 218 214 197 212 190 225 226 226 209 220 217 225 231 242 242 244 262 263 269 258 265 193 156 131 168 157 213 215 191 154 144 154 157 148 151
350 349 346 345 342 341 340 339 338 338 337 334 332 334 331 330 328 327 326 326 325 327 325 325 326 326 325 321 328 325 306 346 329 95 163 170 165 149 157 336 301 306 290 289 294 280 268 272 277 270 251 263 238 210 226 221 215 220 225 234 238 219 228 219 211 224 238 246 253 257 265 258 272 268 221 173 164 174 182 191 237 208 143 141 149 157 149 148
346 343 343 341 341 339 338 338 337 337 336 332 328 330 332 329 328 327 325 324 325 325 327 325 325 327 324 325 315 302 294 276 116 143 167 169 180 167 188 209 248 270 289 286 276 287 286 274 245 257 259 241 245 231 212 230 200 231 239 237 235 234 245 207 216 219 219 230 248 242 260 268 264 275 249 228 195 182 186 187 211 215 148 148 150 150 150 150
345 342 340 340 340 339 338 336 336 332 331 330 327 326 329 328 328 326 324 323 322 324 325 325 325 327 329 323 299 250 238 286 320 175 175 181 193 194 204 215 243 256 258 273 274 269 274 268 243 231 249 259 251 254 249 222 226 236 234 236 236 227 236 239 241 226 212 218 238 245 252 258 264 263 268 247 234 210 193 192 150 121 142 135 139 149 143 145
343 342 339 338 335 335 335 334 332 331 329 328 328 323 323 326 322 324 320 319 320 320 322 323 325 325 334 336 337 336 261 259 252 160 174 191 199 215 220 238 243 239 247 252 275 280 287 281 265 229 234 236 235 246 253 259 233 229 239 232 236 236 233 230 235 249 241 221 228 240 245 254 254 257 272 266 263 273 193 127 133 134 142 146 144 147 149 153
339 338 337 335 334 332 331 329 329 328 326 324 324 324 321 321 321 320 321 317 318 318 319 320 321 322 327 302 295 301 272 198 164 175 175 192 207 221 201 250 213 237 272 278 260 277 284 274 280 257 249 227 241 262 248 243 248 241 238 238 244 238 233 231 232 239 241 249 236 233 229 250 254 262 265 268 275 268 248 135 124 142 141 145 149 155 153 154
338 338 336 336 334 333 332 330 327 326 324 323 322 321 320 318 318 318 316 315 313 314 315 312 313 327 314 309 292 269 254 169 163 160 194 189 206 216 219 252 268 265 261 253 261 249 247 263 273 297 308 291 266 238 255 246 260 260 256 253 248 245 246 226 229 234 231 239 246 245 238 229 241 252 256 263 264 267 34 134 126 141 146 146 147 155 158 149
339 336 335 334 333 332 331 329 327 325 324 323 321 321 318 317 317 316 314 311 310 311 309 308 310 321 311 309 300 246 283 155 62 5 267 270 181 217 252 290 308 299 288 292 278 274 282 284 285 286 275 252 307 281 251 258 275 264 269 274 264 257 241 236 233 229 228 228 232 240 249 248 243 234 241 248 255 258 234 145 148 151 156 153 152 155 162 156
335 335 333 333 331 331 329 328 327 325 323 322 321 319 317 315 314 312 309 307 307 305 307 308 308 296 290 276 241 232 300 311 321 330 313 308 303 305 300 296 293 280 281 280 279 280 270 272 282 279 261 343 262 328 255 289 275 269 272 268 268 266 257 233 228 229 226 228 213 225 249 252 244 237 235 232 235 250 243 154 157 156 156 158 152 152 156 162
333 333 334 331 330 330 328 327 325 325 323 321 319 318 316 314 312 309 305 302 299 303 302 305 301 288 285 278 241 248 270 281 300 300 292 297 297 262 243 247 251 254 257 260 270 278 290 310 318 294 272 267 280 252 327 304 289 288 262 259 275 269 260 249 237 231 227 225 211 188 233 234 239 243 239 225 230 235 252 147 164 154 146 157 151 148 146 158
333 333 332 331 330 329 329 326 325 324 322 320 317 316 314 311 308 304 300 295 294 295 294 288 289 289 274 254 277 259 259 264 278 290 281 279 277 283 281 260 241 246 233 247 260 270 279 287 284 289 307 278 285 342 302 308 310 263 266 251 244 261 254 247 234 218 233 216 221 200 225 223 233 239 243 234 203 204 225 158 171 159 154 159 161 158 160 170
333 332 331 331 330 328 327 325 324 323 321 319 317 315 311 307 303 299 296 295 291 288 290 297 260 263 231 269 248 254 251 257 276 266 269 274 266 274 264 267 257 226 226 234 245 237 249 252 275 292 278 274 285 266 280 262 273 281 264 238 240 240 253 259 250 226 219 223 216 220 240 231 218 225 232 240 221 215 203 152 164 170 155 164 165 163 161 166
331 331 330 330 329 329 329 326 326 324 321 320 316 313 309 302 297 294 289 286 287 287 279 263 220 211 295 295 298 352 216 221 238 241 240 238 259 263 271 270 271 222 214 229 222 247 255 293 255 249 265 275 255 257 275 307 283 259 244 258 236 226 241 255 244 248 221 216 219 219 236 237 238 224 218 231 235 241 206 146 158 168 165 163 164 166 163 151
331 331 329 328 329 328 325 325 325 324 324 320 316 311 306 295 288 284 285 285 289 255 179 239 199 184 274 256 343 313 282 235 199 225 213 213 238 242 250 260 266 190 182 259 249 248 236 249 197 255 269 268 229 221 245 260 269 268 240 244 245 237 218 235 257 254 253 210 213 214 232 237 228 213 216 203 211 236 229 189 156 176 171 170 171 166 161 158
332 332 329 327 327 326 326 324 324 324 325 322 317 307 301 292 287 286 294 266 182 228 218 216 284 261 259 266 290 271 287 315 141 78 11 112 200 284 301 300 323 324 311 285 243 231 191 230 194 228 221 221 254 224 198 218 212 222 235 252 253 252 247 246 213 245 245 211 210 209 228 239 232 234 201 205 208 212 236 214 167 168 179 178 176 171 164 160
335 332 329 327 326 325 326 324 322 324 326 322 315 304 291 279 295 194 235 240 154 169 31 187 197 144 249 306 245 233 245 239 123 130 186 143 201 223 271 283 310 324 286 277 253 214 184 230 207 222 235 208 215 224 215 222 218 221 235 247 252 246 236 242 246 246 252 216 219 218 223 226 228 219 243 230 189 200 216 221 182 162 177 175 183 175 167 165
336 332 328 326 325 326 326 323 321 322 326 325 325 330 320 33 4 29 191 225 229 235 275 288 208 252 293 298 293 291 292 288 250 170 210 189 189 219 228 223 249 240 239 239 278 243 173 194 216 211 221 230 219 224 240 238 236 242 235 244 255 260 256 244 248 253 249 256 229 223 230 232 217 219 222 241 248 208 196 205 207 193 169 183 180 177 167 165
333 332 330 328 329 329 325 321 320 321 323 320 311 314 16 357 359 340 335 286 263 261 252 244 252 256 258 257 271 305 316 306 303 282 200 176 209 185 196 202 246 271 238 243 252 285 201 219 221 224 227 229 241 223 226 251 249 237 244 241 246 254 255 244 240 238 250 256 243 219 219 234 236 219 213 236 240 242 224 209 213 220 204 181 182 177 170 169
335 333 332 331 328 328 324 322 318 318 319 303 284 302 341 11 347 329 342 308 303 262 262 272 274 264 257 262 267 266 266 281 270 282 300 290 208 160 183 195 200 229 234 239 243 259 253 227 220 222 228 236 239 250 232 223 238 248 243 241 258 253 275 271 255 234 243 243 255 239 224 220 232 221 210 213 235 241 226 217 203 209 215 193 187 176 171 160
337 335 332 330 330 325 325 322 317 316 309 312 266 335 356 342 346 345 345 294 277 283 257 238 230 238 260 268 269 245 247 244 278 261 240 196 256 232 296 268 254 240 235 237 232 232 252 251 237 226 225 233 240 239 249 243 228 230 238 243 242 249 248 256 265 259 234 238 230 241 244 230 226 214 203 206 220 235 241 217 217 205 196 198 189 181 165 162
336 332 332 330 327 323 321 319 318 306 209 212 263 22 348 315 341 6 354 291 315 310 251 234 231 236 244 260 255 225 215 258 232 250 229 214 216 196 225 244 264 265 250 231 238 240 242 253 248 230 227 229 239 241 240 245 251 230 229 237 239 246 248 252 269 268 264 234 243 244 251 242 211 200 201 204 210 219 225 233 227 216 211 198 186 181 165 162
334 332 330 328 326 323 321 322 309 311 329 309 17 13 333 330 8 8 332 284 243 257 250 241 215 228 353 160 106 306 253 249 244 289 359 337 278 217 226 214 240 257 272 261 244 243 248 250 256 255 223 222 236 243 240 238 247 253 240 227 236 242 249 258 261 266 269 284 237 226 241 243 208 204 199 201 222 223 219 221 229 234 210 212 187 178 165 159
333 331 329 328 326 327 316 303 312 320 313 325 3 3 313 338 28 339 79 331 322 277 123 149 340 301 336 3 108 257 321 272 332 245 257 199 264 277 202 233 177 256 238 253 258 250 241 228 244 260 257 226 222 240 243 238 243 240 241 233 229 237 248 252 258 254 259 251 258 231 232 247 219 205 202 198 212 220 219 212 215 231 220 188 190 176 158 157
332 331 329 327 326 330 341 43 318 300 299 32 358 333 344 334 6 16 318 272 316 239 96 8 255 58 332 341 308 339 247 222 258 292 316 336 264 147 242 233 265 243 257 270 314 249 275 280 263 251 256 253 229 223 231 241 245 250 241 246 239 226 236 245 259 260 268 279 278 267 234 231 253 217 199 195 200 216 212 205 210 218 220 191 183 166 159 155
331 331 328 326 322 320 249 303 316 309 322 320 325 333 318 345 326 55 81 291 46 293 35 36 70 327 331 280 284 291 293 310 262 314 292 326 114 262 215 265 247 262 219 266 250 254 273 277 267 270 273 261 239 226 214 216 241 244 242 239 253 246 227 231 249 257 253 265 273 279 257 231 228 251 196 183 195 210 211 199 202 210 198 178 163 159 156 156
331 328 326 325 324 300 253 213 301 274 269 313 295 309 341 318 19 55 57 101 16 22 222 49 261 12 316 3 342 347 344 343 323 327 346 344 229 242 209 219 244 265 271 263 269 248 228 248 265 272 270 268 263 252 259 227 223 238 263 272 270 261 254 230 235 244 251 255 258 263 264 260 228 208 207 182 190 203 204 198 207 203 187 167 157 155 156 156
330 326 327 329 328 289 143 223 238 251 285 293 333 318 326 332 343 329 207 291 9 82 3 180 182 261 286 353 291 342 319 298 289 230 34 244 309 316 268 290 291 309 302 282 269 263 274 278 295 295 283 292 299 287 264 262 260 246 228 248 260 268 266 271 253 234 244 240 249 254 263 269 266 207 183 193 192 202 195 197 203 193 183 161 163 156 157 158
328 325 322 327 294 331 322 240 240 249 282 337 329 314 279 315 33 282 354 229 262 48 307 25 331 267 299 324 302 235 241 257 274 244 310 28 311 298 329 308 242 263 258 299 289 305 287 266 259 274 283 283 295 295 284 261 257 278 233 228 261 271 281 278 268 215 215 243 243 251 261 280 274 271 209 189 203 205 191 195 199 194 182 159 163 157 155 158
326 321 314 313 259 298 273 298 337 341 355 314 313 305 0 356 129 66 272 3 281 302 338 271 255 301 293 266 209 245 230 250 206 181 196 176 225 247 207 225 160 239 285 241 279 261 269 265 283 273 258 275 281 291 288 288 298 280 261 244 205 251 219 269 261 242 227 229 248 250 262 289 268 248 212 202 202 202 201 201 202 189 177 156 162 159 157 159
324 316 309 284 256 228 241 253 309 342 322 302 322 311 3 37 358 348 331 352 262 169 324 201 317 311 293 290 267 263 236 271 151 202 198 215 209 222 235 219 224 190 220 201 255 253 258 241 241 253 275 229 243 260 283 295 281 279 237 198 203 228 231 248 249 250 246 233 249 253 268 259 273 276 208 204 201 199 210 210 190 176 171 156 163 160 157 159
322 314 303 268 258 240 250 275 348 12 327 311 303 320 221 12 308 6 353 11 273 3 320 349 320 302 293 249 273 305 321 270 247 209 166 202 186 240 239 232 229 241 221 287 279 265 320 318 243 224 227 217 237 230 241 266 278 256 259 224 202 220 206 220 221 204 227 281 282 257 250 206 242 244 202 198 199 201 207 208 179 169 161 156 160 159 158 160
318 303 263 263 244 251 258 232 72 322 311 321 329 247 16 284 307 355 311 325 357 318 316 330 296 280 296 264 307 311 121 302 219 252 218 205 210 206 216 233 224 226 222 251 244 241 242 244 267 218 249 205 223 232 245 260 286 281 282 261 242 227 123 225 218 222 190 251 264 257 231 233 222 250 197 211 222 211 212 196 169 167 159 151 158 162 162 163
319 311 171 236 207 227 209 130 147 257 299 314 335 314 252 319 285 355 328 356 334 335 322 311 266 307 286 317 259 275 178 150 302 339 252 232 223 221 203 224 223 198 208 192 183 246 229 251 244 279 280 265 240 231 233 209 224 239 218 229 231 251 266 301 283 264 281 281 261 254 250 249 273 274 251 222 211 214 206 195 173 170 158 153 163 165 162 164
331 319 247 236 224 143 116 131 126 259 267 314 2 296 320 314 298 309 358 344 311 327 328 327 332 356 319 306 339 308 260 201 219 125 275 307 272 214 222 226 230 212 205 189 233 247 204 265 289 269 266 262 256 233 245 236 229 282 290 260 289 253 271 242 216 224 225 242 262 258 259 268 245 256 248 223 230 222 192 195 175 169 159 156 166 165 163 165
323 306 294 261 114 111 96 76 60 268 88 315 255 261 273 253 310 337 145 325 308 110 264 268 268 279 293 350 305 319 315 310 201 160 257 158 254 139 231 240 214 229 211 191 198 275 309 297 266 264 272 287 269 230 246 250 245 246 247 322 247 210 234 248 257 233 220 233 271 245 251 261 224 238 219 215 219 226 194 189 169 169 166 156 165 162 163 159
260 285 295 164 173 109 82 95 298 244 317 278 249 293 301 307 316 321 142 275 213 298 214 243 262 275 10 311 257 287 298 290 312 69 358 306 266 228 249 198 256 223 215 204 196 142 110 213 293 245 258 303 298 208 232 241 248 252 266 265 272 65 295 269 213 307 237 239 159 269 260 253 231 227 219 218 218 223 173 184 169 169 166 150 163 160 161 157
251 280 249 127 97 98 119 118 174 15 192 215 256 264 288 293 306 308 108 313 260 134 244 268 277 298 295 246 263 290 289 288 316 144 165 222 234 227 232 214 265 213 258 204 177 132 83 124 248 276 79 58 302 210 215 213 214 225 230 252 254 211 259 338 295 238 222 240 215 244 268 259 249 243 214 231 220 214 178 178 170 168 163 150 158 158 160 156
311 255 269 113 100 98 132 123 272 194 235 252 250 268 290 277 285 291 288 166 231 178 204 250 285 270 285 304 292 293 293 328 327 151 240 288 201 312 267 207 226 270 196 179 187 150 137 155 219 288 274 231 241 257 222 208 223 222 207 231 226 223 220 245 282 257 231 233 234 230 249 262 269 242 228 219 197 183 191 166 164 163 158 147 152 155 156 154
324 328 203 154 122 129 113 304 230 197 222 266 255 245 283 310 289 292 320 272 180 239 197 255 263 269 278 269 265 286 318 290 266 298 233 268 231 259 262 264 236 237 131 171 204 170 147 159 211 254 227 245 255 256 239 219 224 234 213 225 216 221 203 216 253 275 259 257 281 281 292 269 250 250 221 218 172 151 157 145 152 154 152 147 148 152 152 153
275 296 359 128 158 145 216 258 235 152 241 238 278 276 303 297 278 285 292 298 308 284 2 247 279 302 282 212 292 306 38 283 215 248 236 309 297 295 267 245 242 152 128 63 130 19 231 136 201 266 270 269 263 258 254 222 222 235 234 228 205 226 225 224 226 266 275 270 285 316 280 267 277 286 215 207 173 157 160 133 145 148 150 146 144 148 148 152
296 289 238 188 157 195 62 250 307 289 280 305 304 289 298 280 292 307 297 304 302 277 239 256 296 268 274 285 301 301 2 342 289 256 272 231 268 248 276 290 206 162 171 187 145 218 151 218 179 321 330 269 255 287 262 205 208 227 225 217 226 240 232 232 250 258 265 237 241 260 267 280 291 261 268 189 151 149 167 142 142 150 154 147 145 148 149 148
287 231 211 138 202 200 217 237 297 296 291 298 301 301 309 289 285 280 273 260 265 238 275 227 203 296 298 299 300 282 226 214 298 266 324 282 287 299 292 275 260 220 126 146 133 164 203 165 165 188 202 153 157 208 203 189 203 207 224 217 225 235 248 253 246 257 255 253 244 246 266 282 297 314 273 113 145 149 161 138 132 148 152 144 143 147 146 147
325 345 306 160 230 252 254 263 266 266 295 299 312 281 267 287 292 293 219 260 232 256 230 309 243 241 286 327 310 315 320 197 201 299 311 312 308 302 332 311 315 285 144 130 126 146 190 166 164 226 237 267 312 306 194 157 153 213 207 226 232 244 256 256 265 271 255 149 294 264 298 304 293 294 261 136 84 157 159 129 134 141 146 144 143 146 149 149
298 253 353 331 300 216 245 238 262 198 251 313 289 312 297 293 293 295 165 282 195 228 254 161 256 310 298 329 317 313 305 310 271 239 256 288 314 307 314 301 290 270 137 125 127 79 140 233 220 225 242 254 255 259 271 189 196 204 218 225 243 252 251 255 244 252 248 340 278 280 276 294 308 307 313 319 143 197 223 133 142 134 148 147 144 143 142 144
319 347 26 26 243 299 343 318 350 315 294 298 262 281 288 289 301 333 345 308 322 333 39 290 224 240 282 278 311 299 303 300 300 290 256 277 316 324 331 350 5 126 135 132 162 158 167 224 221 226 249 257 239 260 266 241 213 218 224 242 248 245 239 239 257 276 253 204 236 287 336 326 296 293 300 283 88 57 198 161 150 150 146 143 142 143 145 146
7 313 272 36 347 316 308 281 292 284 291 294 275 264 274 318 338 353 343 323 324 320 141 282 295 274 227 259 236 285 298 320 312 321 276 300 323 335 341 339 45 40 42 128 150 175 108 250 241 237 289 280 281 278 290 288 244 220 226 231 233 237 243 245 252 259 263 199 66 16 352 317 286 267 286 321 55 44 41 42 126 136 146 148 148 147 147 149
24 345 332 342 277 283 280 298 301 300 294 290 283 321 353 340 341 337 337 324 316 311 242 213 277 322 270 254 215 232 263 280 278 278 231 189 292 198 291 212 256 129 158 182 130 291 165 273 2 312 311 290 278 275 280 278 261 250 237 231 235 231 234 245 245 255 199 323 38 45 328 295 252 244 288 331 49 35 45 57 96 133 141 145 148 149 148 153
332 13 320 320 316 302 308 302 301 308 303 331 357 358 342 348 331 337 316 308 290 305 318 316 116 305 274 266 275 253 257 260 270 259 245 217 237 189 135 268 177 299 250 207 175 226 134 243 297 297 0 307 312 284 275 263 263 254 237 229 228 219 224 232 246 239 352 171 246 76 305 272 282 296 280 356 58 63 86 87 80 124 136 140 147 150 152 154
6 334 322 295 280 298 309 301 310 318 312 354 339 340 345 329 329 328 320 278 303 308 307 316 208 286 309 300 281 264 261 252 246 263 239 221 221 229 207 222 194 212 290 20 334 195 191 228 357 5 1 257 308 318 345 353 334 283 250 229 219 228 235 261 247 207 210 200 114 234 243 246 266 284 295 22 50 65 72 96 74 4 131 143 144 153 156 156